Date,TemperatureHighF,TemperatureAvgF,TemperatureLowF,DewpointHighF,DewpointAvgF,DewpointLowF,HumidityHigh,HumidityAvg,HumidityLow,PressureMaxIn,PressureMinIn,WindSpeedMaxMPH,WindSpeedAvgMPH,GustSpeedMaxMPH,PrecipitationSumIn
2013-3-1,77.5,57.7,43.7,55.7,48.6,42.4,96,75,42,30.35,30.14,5,1,0,0.00
2013-3-2,71.6,58.3,47.5,55.9,50.0,45.3,93,75,54,30.16,29.97,4,1,0,0.00
2013-3-3,70.0,55.0,43.3,51.8,47.2,41.0,92,77,46,30.02,29.94,9,2,0,0.00
2013-3-4,63.0,49.4,39.4,49.2,42.9,36.7,95,80,58,30.07,29.97,9,2,0,0.00
2013-3-5,62.8,49.5,36.1,46.1,41.6,34.3,94,76,50,30.00,29.76,13,4,0,0.18
2013-3-6,58.1,50.7,38.3,48.2,42.4,35.9,91,74,54,29.99,29.78,18,5,0,0.29
2013-3-7,61.0,47.9,37.6,45.9,41.3,35.2,94,79,52,29.92,29.76,7,2,0,0.20
2013-3-8,63.1,50.9,42.4,47.6,43.7,41.0,96,78,54,29.98,29.74,14,4,0,0.03
2013-3-9,72.7,55.1,42.6,45.9,41.4,36.9,91,64,28,30.22,29.98,7,2,0,0.00
2013-3-10,75.9,55.8,38.5,50.1,39.0,29.8,93,61,19,30.28,30.16,5,2,0,0.00
2013-3-11,78.3,55.5,39.6,52.2,42.8,36.9,94,68,27,30.18,30.01,6,2,0,0.00
2013-3-12,77.0,57.0,42.3,56.1,48.5,40.1,96,77,41,30.08,29.97,7,1,0,0.00
2013-3-13,83.5,60.7,42.4,58.0,50.2,41.1,97,73,36,30.08,29.95,5,1,0,0.00
2013-3-14,77.5,57.8,44.6,56.3,47.2,37.4,96,72,27,30.08,30.00,6,1,0,0.00
2013-3-15,76.1,56.0,41.5,54.5,46.1,38.4,92,72,41,30.06,29.96,7,1,0,0.00
2013-3-16,79.2,57.5,45.3,55.5,46.4,38.5,95,71,24,30.03,29.94,12,3,0,0.00
2013-3-17,73.0,56.7,43.2,46.8,42.9,39.6,88,63,34,30.07,29.96,7,2,0,0.00
2013-3-18,68.2,54.0,40.5,51.8,44.8,38.6,94,73,54,30.04,29.94,5,2,0,0.00
2013-3-19,74.8,56.0,43.5,53.0,45.5,34.7,92,71,40,30.05,29.97,8,2,0,0.04
2013-3-20,67.1,56.5,49.1,56.6,51.1,47.2,96,83,62,30.05,29.99,13,3,0,0.03
2013-3-21,70.3,54.1,41.9,50.6,43.4,38.7,93,70,38,30.06,29.92,7,2,0,0.00
2013-3-22,73.2,54.6,38.5,47.1,33.6,21.9,93,55,15,30.04,29.93,7,2,0,0.00
2013-3-23,73.0,55.6,39.4,43.7,34.6,23.0,86,53,16,30.06,29.95,5,2,0,0.00
2013-3-24,75.9,55.9,40.6,52.0,43.9,37.6,94,68,36,30.02,29.87,7,2,0,0.00
2013-3-25,68.9,51.5,40.1,51.1,43.3,38.0,95,75,52,29.95,29.85,7,2,0,0.00
2013-3-26,72.7,56.2,43.0,51.2,45.3,40.0,92,69,44,29.93,29.83,6,2,0,0.00
2013-3-27,70.0,56.6,46.2,55.1,49.7,43.1,92,79,55,29.93,29.87,14,2,0,0.00
2013-3-28,74.8,60.8,51.1,58.5,54.2,49.1,96,81,56,29.99,29.92,7,1,0,0.02
2013-3-29,81.0,62.2,45.3,57.4,51.8,44.0,97,73,40,30.00,29.89,7,2,0,0.00
2013-3-30,74.3,60.5,52.7,58.6,53.5,49.9,93,79,48,29.98,29.86,10,2,0,0.09
2013-3-31,70.2,59.7,50.0,58.7,52.2,48.6,96,78,53,29.97,29.89,11,3,0,0.10